Weather History for Chicago Lansing, IL

Change the Weather History Date:

Saturday, April 26, 2014

  Actual Average (KMDW) Record (KMDW)
Temperature  
Mean Temperature 48 °F 55 °F  
Max Temperature 58 °F 64 °F 91 °F (1986)
Min Temperature 38 °F 45 °F 29 °F (1930)
Degree Days  
Heating Degree Days 18 11  
Month to date heating degree days 408  
Since 1 July heating degree days 5731  
Cooling Degree Days 0 1  
Month to date cooling degree days 8  
Year to date cooling degree days 9  
Moisture  
Dew Point 35 °F    
Average Humidity 66    
Maximum Humidity 84    
Minimum Humidity 48    
Precipitation  
Precipitation 0.00 in 0.13 in 0.84 in (1979)
Month to date precipitation 3.13  
Year to date precipitation 9.85  
Sea Level Pressure  
Sea Level Pressure 29.97 in    
Wind  
Wind Speed 8 mph (NE)    
Max Wind Speed 20 mph    
Max Gust Speed 25 mph    
Visibility 10 miles    
Events Rain    
T = Trace of Precipitation, MM = Missing Value Source: NWS Daily Summary

Daily Weather History Graph

Daily Weather History Graph

Search for Another Location

Airport:

Trip Planner

Search our weather history database for the weather conditions in past years. The results will help you decide how hot, cold, wet, or windy it might be!

Date:

Astronomy

Apr. 26, 2014 Rise Set
Actual Time 5:53 AM CDT 7:42 PM CDT
Civil Twilight 5:24 AM CDT 8:12 PM CDT
Nautical Twilight 4:48 AM CDT 8:48 PM CDT
Astronomical Twilight 4:09 AM CDT 9:27 PM CDT
Moon 4:20 AM CDT (4/26) 5:08 PM CDT (4/26)
Length of Visible Light 14h 48m
Length of Day
13h 48m
Waning Crescent, 8% of the Moon is Illuminated
Apr 26
Waning Crescent
Apr 29
New
May 6
First Quarter
May 14
Full
May 21
Last Quarter

Hourly Weather History & Observations

Time (CDT) Temp. Windchill Dew Point Humidity Pressure Visibility Wind Dir Wind Speed Gust Speed Precip Events Conditions
12:15 AM 54.5 °F - 42.8 °F 65% 29.85 in 10.0 mi Calm Calm - N/A   Overcast
12:35 AM 52.9 °F - 43.3 °F 70% 29.85 in 10.0 mi Calm Calm - N/A   Overcast
12:55 AM 53.2 °F - 43.7 °F 70% 29.85 in 10.0 mi Calm Calm - N/A   Overcast
1:15 AM 52.7 °F - 41.9 °F 67% 29.85 in 10.0 mi Calm Calm - N/A   Overcast
1:35 AM 52.9 °F - 42.6 °F 68% 29.85 in 10.0 mi Calm Calm - N/A   Overcast
1:55 AM 54.0 °F - 41.7 °F 63% 29.85 in 10.0 mi WSW 5.8 mph - N/A   Overcast
2:15 AM 54.0 °F - 41.0 °F 62% 29.86 in 10.0 mi WNW 6.9 mph - N/A   Overcast
2:35 AM 56.7 °F - 39.0 °F 52% 29.86 in 10.0 mi WNW 5.8 mph - N/A Rain Light Rain
2:55 AM 57.4 °F - 37.6 °F 48% 29.85 in 10.0 mi NNW 9.2 mph - N/A   Overcast
3:15 AM 57.6 °F - 37.9 °F 48% 29.84 in 10.0 mi Calm Calm - N/A   Overcast
3:35 AM 57.0 °F - 40.1 °F 53% 29.85 in 10.0 mi West 3.5 mph - N/A   Overcast
3:55 AM 54.5 °F - 42.3 °F 63% 29.85 in 10.0 mi SW 3.5 mph - N/A   Overcast
4:15 AM 53.6 °F - 42.1 °F 65% 29.86 in 10.0 mi WSW 5.8 mph - N/A   Overcast
4:35 AM 49.3 °F - 37.6 °F 64% 29.87 in 10.0 mi NNE 9.2 mph - N/A   Overcast
4:55 AM 48.0 °F - 37.4 °F 67% 29.88 in 10.0 mi NNE 6.9 mph - N/A   Overcast
5:15 AM 46.4 °F 41.5 °F 35.6 °F 66% 29.89 in 10.0 mi NE 10.4 mph - N/A   Overcast
5:35 AM 46.4 °F 42.9 °F 35.8 °F 67% 29.91 in 10.0 mi NE 6.9 mph - N/A   Overcast
5:55 AM 46.4 °F 42.9 °F 34.9 °F 64% 29.91 in 10.0 mi NE 6.9 mph - N/A   Overcast
6:15 AM 46.4 °F 41.9 °F 34.5 °F 63% 29.92 in 10.0 mi NE 9.2 mph - N/A   Overcast
6:35 AM 46.0 °F 41.9 °F 34.7 °F 65% 29.93 in 10.0 mi NE 8.1 mph - N/A   Scattered Clouds
6:55 AM 46.6 °F - 33.3 °F 60% 29.93 in 10.0 mi NE 13.8 mph - N/A   Clear
7:15 AM 47.3 °F - 33.4 °F 59% 29.95 in 10.0 mi NE 6.9 mph - N/A   Clear
7:35 AM 47.8 °F - 33.3 °F 57% 29.95 in 10.0 mi NE 11.5 mph 17.3 mph N/A   Clear
7:55 AM 48.2 °F - 32.2 °F 54% 29.96 in 10.0 mi NE 11.5 mph - N/A   Clear
8:15 AM 47.8 °F - 31.6 °F 53% 29.96 in 10.0 mi NE 13.8 mph - N/A   Clear
8:35 AM 47.3 °F - 32.5 °F 57% 29.98 in 10.0 mi NE 13.8 mph - N/A   Clear
8:55 AM 46.4 °F 40.4 °F 33.8 °F 62% 29.98 in 10.0 mi NNE 13.8 mph 17.3 mph N/A   Clear
9:15 AM 46.0 °F 41.0 °F 33.6 °F 62% 29.99 in 10.0 mi NE 10.4 mph 19.6 mph N/A   Clear
9:35 AM 45.0 °F 37.6 °F 32.5 °F 62% 29.99 in 10.0 mi NE 17.3 mph 21.9 mph N/A   Clear
9:55 AM 45.5 °F 38.6 °F 32.5 °F 61% 30.00 in 10.0 mi NE 16.1 mph - N/A   Clear
10:15 AM 46.0 °F 39.9 °F 32.5 °F 59% 30.00 in 10.0 mi NE 13.8 mph 20.7 mph N/A   Clear
10:35 AM 45.7 °F 38.6 °F 32.5 °F 60% 29.99 in 10.0 mi ENE 17.3 mph 20.7 mph N/A   Clear
10:55 AM 46.2 °F 40.1 °F 32.7 °F 59% 30.00 in 10.0 mi NE 13.8 mph 20.7 mph N/A   Clear
11:15 AM 45.5 °F 38.3 °F 32.0 °F 59% 30.00 in 10.0 mi NE 17.3 mph 21.9 mph N/A   Clear
11:35 AM 46.4 °F 40.7 °F 32.4 °F 58% 30.01 in 10.0 mi NNE 12.7 mph 23.0 mph N/A   Clear
11:55 AM 45.5 °F 39.6 °F 32.0 °F 59% 30.01 in 10.0 mi NE 12.7 mph 20.7 mph N/A   Scattered Clouds
12:15 PM 45.7 °F 38.8 °F 32.0 °F 59% 30.01 in 10.0 mi NE 16.1 mph 21.9 mph N/A   Scattered Clouds
12:35 PM 45.0 °F 37.6 °F 32.0 °F 60% 30.02 in 10.0 mi NE 17.3 mph 21.9 mph N/A   Mostly Cloudy
12:55 PM 45.3 °F 38.1 °F 32.4 °F 61% 30.02 in 10.0 mi NE 17.3 mph 21.9 mph N/A   Mostly Cloudy
1:15 PM 45.7 °F 38.8 °F 32.4 °F 60% 30.02 in 10.0 mi NE 16.1 mph 20.7 mph N/A   Mostly Cloudy
1:35 PM 45.7 °F 39.1 °F 32.4 °F 60% 30.03 in 10.0 mi NNE 15.0 mph 21.9 mph N/A   Mostly Cloudy
1:55 PM 45.3 °F 38.4 °F 32.2 °F 60% 30.04 in 10.0 mi NE 16.1 mph 23.0 mph N/A   Clear
2:15 PM 45.7 °F 38.3 °F 31.8 °F 58% 30.03 in 10.0 mi NE 18.4 mph 24.2 mph N/A   Scattered Clouds
2:35 PM 44.8 °F 36.9 °F 31.5 °F 60% 30.03 in 10.0 mi ENE 19.6 mph 25.3 mph N/A   Scattered Clouds
2:55 PM 45.0 °F 37.6 °F 31.8 °F 60% 30.03 in 10.0 mi NE 17.3 mph 23.0 mph N/A   Clear
3:15 PM 44.6 °F 37.4 °F 32.0 °F 61% 30.03 in 10.0 mi NE 16.1 mph 24.2 mph N/A   Clear
3:35 PM 44.4 °F 36.6 °F 32.0 °F 62% 30.03 in 10.0 mi NE 18.4 mph 21.9 mph N/A   Clear
3:55 PM 44.1 °F 37.7 °F 32.2 °F 63% 30.03 in 10.0 mi NE 12.7 mph 23.0 mph N/A   Clear
4:15 PM 44.6 °F 38.8 °F 32.4 °F 62% 30.04 in 10.0 mi NNE 11.5 mph 18.4 mph N/A   Scattered Clouds
4:35 PM 43.0 °F 35.7 °F 31.8 °F 65% 30.04 in 10.0 mi NNE 15.0 mph 23.0 mph N/A   Scattered Clouds
4:55 PM 43.2 °F 35.9 °F 32.0 °F 65% 30.03 in 10.0 mi NNE 15.0 mph 21.9 mph N/A   Clear
5:15 PM 43.0 °F 36.0 °F 32.2 °F 66% 30.03 in 10.0 mi NNE 13.8 mph 19.6 mph N/A   Clear
5:35 PM 42.1 °F 35.2 °F 32.0 °F 67% 30.02 in 10.0 mi NNE 12.7 mph 20.7 mph N/A   Clear
5:55 PM 41.5 °F 34.2 °F 32.4 °F 70% 30.02 in 10.0 mi NE 13.8 mph 19.6 mph N/A   Clear
6:15 PM 41.0 °F 33.5 °F 32.4 °F 71% 30.01 in 10.0 mi NE 13.8 mph - N/A   Clear
6:35 PM 39.9 °F 31.4 °F 32.2 °F 74% 30.01 in 10.0 mi NNE 16.1 mph 20.7 mph N/A   Clear
6:55 PM 39.6 °F 32.5 °F 32.4 °F 75% 30.01 in 10.0 mi NNE 11.5 mph 21.9 mph N/A   Clear
7:15 PM 38.5 °F 31.1 °F 32.0 °F 78% 30.01 in 10.0 mi NNE 11.5 mph 20.7 mph N/A   Clear
7:35 PM 38.3 °F 30.1 °F 32.0 °F 78% 30.01 in 10.0 mi NNE 13.8 mph 21.9 mph N/A   Clear
7:55 PM 38.3 °F 30.5 °F 32.4 °F 79% 30.01 in 10.0 mi NE 12.7 mph - N/A   Clear
8:15 PM 38.5 °F 32.1 °F 32.4 °F 79% 30.02 in 10.0 mi NE 9.2 mph - N/A   Clear
8:35 PM 38.5 °F 31.6 °F 32.9 °F 80% 30.01 in 10.0 mi NE 10.4 mph - N/A   Mostly Cloudy
8:55 PM 39.2 °F 31.2 °F 33.8 °F 81% 30.01 in 10.0 mi NE 13.8 mph - N/A   Mostly Cloudy
9:15 PM 38.3 °F 31.4 °F 33.4 °F 83% 30.02 in 10.0 mi NE 10.4 mph - N/A   Clear
9:35 PM 38.3 °F 30.9 °F 33.4 °F 83% 30.01 in 10.0 mi NE 11.5 mph - N/A   Clear
9:55 PM 38.3 °F 31.4 °F 33.8 °F 84% 30.00 in 10.0 mi NE 10.4 mph - N/A   Clear
10:15 PM 38.5 °F 32.1 °F 34.0 °F 84% 30.01 in 10.0 mi NE 9.2 mph 17.3 mph N/A   Clear
10:35 PM 38.8 °F 33.2 °F 34.0 °F 83% 30.01 in 10.0 mi ENE 8.1 mph - N/A   Clear
10:55 PM 39.0 °F 33.4 °F 34.2 °F 83% 30.01 in 10.0 mi NE 8.1 mph - N/A   Clear
11:15 PM 39.2 °F 32.5 °F 34.0 °F 82% 30.01 in 10.0 mi NE 10.4 mph - N/A   Clear
11:35 PM 39.2 °F 35.0 °F 34.2 °F 82% 30.01 in 10.0 mi NE 5.8 mph - N/A   Clear
11:55 PM 39.6 °F 33.5 °F 34.7 °F 83% 30.01 in 10.0 mi NE 9.2 mph - N/A   Clear